Regional Weather Roundup
Issued by NWS

Home | Current Version | Previous Version | Graphics & Text | Print | Product List | Glossary On
Versions: 1 2 3 4 5 6 7 8 9 10 11 12 13 14 15 16 17 18 19 20 21 22 23 24 25 26 27 28 29 30 31 32 33 34 35 36 37 38 39 40 41 42 43 44 45 46 47 48 49 50
000
ASUS43 KDMX 020807
RWRIA

WEATHER ROUNDUP FOR IOWA
NATIONAL WEATHER SERVICE DES MOINES IA
300 AM CDT SUN AUG 02 2015

NOTE: "FAIR" INDICATES FEW OR NO CLOUDS BELOW 12,000 FEET WITH NO
SIGNIFICANT WEATHER AND/OR OBSTRUCTIONS TO VISIBILITY.

* - THESE STATIONS ARE NOT NWS STATIONS...THUS NOT UNDER NWS
QUALITY CONTROL.  THEY ALSO DO NOT REPORT WEATHER SUCH
AS PRECIPITATION OR FOG.

IAZ001>003-012>014-020>022-031>034-043>046-020900-
   NORTHWEST IOWA

CITY           SKY/WX    TMP DP  RH WIND       PRES   REMARKS
CARROLL *      PTCLDY    70  64  83 SW14G22   29.87F
CHEROKEE *     CLEAR     68  68 100 CALM      29.84F
DENISON *      CLEAR     70  68  94 S10       29.84F
LE MARS *      CLEAR     68  66  94 S7        29.84F
ORANGE CITY *  CLEAR     66  63  88 SW9       29.83F
SHELDON *      CLEAR     68  64  88 SW9       29.81F
SIOUX CITY     CLOUDY    70  65  84 N6        29.84F
SPENCER        PTCLDY    70  65  84 SW8       29.83F
STORM LAKE *   CLEAR     70  70 100 SW10      29.85F
$$

IAZ055>058-069>071-079>083-090>094-020900-
   SOUTHWEST IOWA

CITY           SKY/WX    TMP DP  RH WIND       PRES   REMARKS
ATLANTIC *     MOCLDY    68  63  83 S7        29.89F
AUDUBON *      CLEAR     70  63  78 S6        29.90F
CLARINDA *     CLEAR     66  64  94 S5        29.92F
COUNCIL BLFS * CLEAR     72  68  88 S8        29.88F
CRESTON *      MOCLDY    70  61  73 S7        29.92F
HARLAN  *      PTCLDY    68  68 100 S9        29.91F
LAMONI           N/A     70  60  70 SW9       29.92
RED OAK *      PTCLDY    68  63  83 S5        29.90F
SHENANDOAH *   CLEAR     70  64  83 SW6       29.91F
$$

IAZ047>049-059>061-072>074-084-020900-
   CENTRAL IOWA

CITY           SKY/WX    TMP DP  RH WIND       PRES   REMARKS
AMES           CLEAR     70  67  90 SW8       29.86F
ANKENY *       CLEAR     73  64  73 SW8       29.87F
CHARITON *     PTCLDY    70  64  83 SW6       29.90F
DES MOINES     PTCLDY    73  64  73 SW10      29.87F
GRINNELL*      CLEAR     70  66  88 SW6       29.88F
KNOXVILLE *    CLEAR     72  64  78 SW8       29.87F
MARSHALLTOWN   CLEAR     72  68  87 SW10      29.85F
PELLA *        CLEAR     73  68  83 SW6       29.89F
PERRY *          N/A     72  64  78 SW8       29.87F
$$

IAZ004>006-015-016-023>025-035-036-020900-
   NORTH CENTRAL IOWA

CITY           SKY/WX    TMP DP  RH WIND       PRES   REMARKS
ALGONA *       CLEAR     70  68  94 SW14      29.82F
CLARION *      CLEAR     70  68  94 SW10      29.85F
ESTHERVILLE    PTCLDY    70  66  87 SW12G23   29.81F
FORT DODGE *   CLEAR     70  66  88 SW10      29.86F
MASON CITY     PTCLDY    72  68  87 S14       29.84F
FOREST CITY *  CLEAR     68  68 100 SW10G16   29.82F
IOWA FALLS *     N/A     72  68  88 SW10      29.87F
$$

IAZ007>011-017>019-026>030-037>042-050>054-066-020900-
   NORTHEAST IOWA

CITY           SKY/WX    TMP DP  RH WIND       PRES   REMARKS
CEDAR RAPIDS   CLEAR     69  69 100 SW7       29.87F
CHARLES CITY * CLEAR     70  70 100 SW9       29.83F
CLINTON *      CLEAR     68  66  94 SW6       29.90F
DECORAH *      CLEAR     73  70  88 VRB7G15   29.81F
DUBUQUE        CLEAR     70  68  93 SW9       29.86F
MONTICELLO *   CLEAR     68  66  94 CALM      29.86F
OELWEIN *        N/A    N/A N/A N/A MISG        N/A
WATERLOO       CLEAR     73  70  90 SW12      29.83F
$$

IAZ064-065-067-068-078-020900-
   EAST CENTRAL IOWA

CITY           SKY/WX    TMP DP  RH WIND       PRES   REMARKS
DAVENPORT      CLEAR     72  70  93 S8        29.89F
IOWA CITY      CLEAR     71  68  90 CALM      29.89F
MT. PLEASANT * CLEAR     68  64  88 S3        29.91S
MUSCATINE *    CLEAR     70  68  94 S6        29.89S
QUAD CITIES    CLEAR     72  69  90 S3        29.88F
$$

IAZ062-063-075>077-085>089-095>099-020900-
   SOUTHEAST IOWA

CITY           SKY/WX    TMP DP  RH WIND       PRES   REMARKS
BURLINGTON     CLEAR     67  67 100 S6        29.90F
FAIRFIELD *    CLEAR     66  64  94 SW5       29.89F
FORT MADISON * CLEAR     68  66  94 S7        29.92S
KEOKUK *       CLEAR     68  66  94 SW7       29.91S
OSKALOOSA *      N/A     68  66  94 SW3       29.89F
CENTERVILLE *  CLEAR     66  64  94 S5        29.92F
OTTUMWA        CLEAR     69  66  90 SW5       29.87F
WASHINGTON *   CLEAR     68  68 100 SW5       29.90F
$$

ABBREVIATIONS USED IN REMARKS
   TC - TEMPERATURES IN CELSIUS
  WCI - WIND CHILL INDEX
   HX - HEAT INDEX
  VSB - VISIBILITY
$$



USA.gov is the U.S. government's official web portal to all federal, state and local government web resources and services.